Date String (YYYY-MM-DD hh:mm:ss) UTC,Instrument flags,absolute air pressure of the measurement (hPa),sample flow rate (lpm),inlet stack bypass flow (lpm),air temperature of the measurement (°C),ambient temperature measured by the external sensor (°C),aerosol sample conditioner tube jacket temperature (°C),OPC LED temperature (°C),internal box temperature (°C),relative humidity of the measurement (%),span deviation,mass concentration of particles derived from Lorenz-Mie calculation of OPC scattering (μg/m³),mass concentration of particles derived from Lorenz-Mie calculation of OPC scattering (μg/m³),mass concentration of particles derived from Lorenz-Mie calculation of OPC scattering (μg/m³)
DateTimeUTC,F1_M11,P_M11,Q1_M11,Q2_M11,T1_M11,T2_M11,T3_M11,T4_M11,T5_M11,U1_M11,ZSPAN_M11,X0_M11,X2_M11,X1_M11
2023-11-24 23:00:00,SystemResetWarning,0830.2,5.00,000.00,018.8,018.0,000.0,027.2,020.0,12.6,0000.0,0007.49,0004.47,0004.16
2023-11-24 23:01:00,SystemResetWarning,0830.2,4.99,000.00,018.8,018.0,000.0,027.2,020.0,12.7,0000.0,0007.42,0004.37,0004.05
2023-11-24 23:02:00,SystemResetWarning,0830.2,5.00,000.00,018.8,017.9,000.0,027.2,020.0,12.6,0000.0,0007.37,0004.31,0003.97
2023-11-24 23:03:00,SystemResetWarning,0830.2,5.00,000.00,018.8,017.9,000.0,027.2,020.0,12.6,0000.0,0007.34,0004.23,0003.90
2023-11-24 23:04:00,SystemResetWarning,0830.3,5.01,000.00,018.8,017.9,000.0,027.2,020.0,12.6,0000.0,0007.36,0004.17,0003.85
2023-11-24 23:05:00,SystemResetWarning,0830.2,5.00,000.00,018.8,017.9,000.0,027.2,020.0,12.6,0000.0,0006.98,0004.11,0003.80
2023-11-24 23:06:00,SystemResetWarning,0830.3,5.00,000.00,018.8,017.9,000.0,027.2,020.0,12.6,0000.0,0006.81,0004.07,0003.76
2023-11-24 23:07:00,SystemResetWarning,0830.2,5.00,000.00,018.8,017.9,000.0,027.2,020.0,12.7,0000.0,0006.56,0004.02,0003.72
2023-11-24 23:08:00,SystemResetWarning,0830.2,4.99,000.00,018.8,017.9,000.0,027.2,020.0,12.7,0000.0,0006.37,0003.97,0003.68
2023-11-24 23:09:00,SystemResetWarning,0830.2,4.99,000.00,018.8,017.9,000.0,027.2,020.0,12.7,0000.0,0006.31,0003.94,0003.65
2023-11-24 23:10:00,SystemResetWarning,0830.2,5.01,000.00,018.8,017.9,000.0,027.2,020.0,12.7,0000.0,0005.88,0003.90,0003.63
2023-11-24 23:11:00,SystemResetWarning,0830.2,5.01,000.00,018.8,017.9,000.0,027.2,020.0,12.7,0000.0,0005.70,0003.87,0003.60
2023-11-24 23:12:00,SystemResetWarning,0830.2,5.00,000.00,018.8,017.9,000.0,027.2,020.0,12.7,0000.0,0005.49,0003.82,0003.58
2023-11-24 23:13:00,SystemResetWarning,0830.2,4.99,000.00,018.8,017.9,000.0,027.2,020.0,12.7,0000.0,0005.38,0003.79,0003.57
2023-11-24 23:14:00,SystemResetWarning,0830.3,5.00,000.00,018.8,017.9,000.0,027.2,020.0,12.7,0000.0,0005.14,0003.75,0003.57
2023-11-24 23:15:00,SystemResetWarning,0830.2,4.99,000.00,018.8,017.9,000.0,027.2,020.0,12.8,0000.0,0004.80,0003.71,0003.56
2023-11-24 23:16:00,SystemResetWarning,0830.2,5.01,000.00,018.8,017.9,000.0,027.2,020.0,12.8,0000.0,0004.79,0003.70,0003.56
2023-11-24 23:17:00,SystemResetWarning,0830.2,5.00,000.00,018.8,017.9,000.0,027.2,020.0,12.8,0000.0,0004.75,0003.70,0003.56
2023-11-24 23:18:00,SystemResetWarning,0830.2,5.00,000.00,018.8,017.9,000.0,027.2,020.0,12.8,0000.0,0004.85,0003.72,0003.58
2023-11-24 23:19:00,SystemResetWarning,0830.2,5.00,000.00,018.8,017.9,000.0,027.2,020.3,12.8,0000.0,0004.96,0003.75,0003.59
2023-11-24 23:20:00,SystemResetWarning,0830.3,5.01,000.00,018.9,018.3,000.0,027.2,020.7,12.7,0000.0,0005.00,0003.77,0003.60
2023-11-24 23:21:00,SystemResetWarning,0830.3,5.00,000.00,019.1,018.8,000.0,027.2,020.9,12.7,0000.0,0005.03,0003.78,0003.61
2023-11-24 23:22:00,SystemResetWarning,0830.3,4.99,000.00,019.1,018.8,000.0,027.2,020.7,12.6,0000.0,0005.61,0003.80,0003.62
2023-11-24 23:23:00,SystemResetWarning,0830.3,4.99,000.00,019.1,018.8,000.0,027.2,020.6,12.6,0000.0,0005.75,0003.82,0003.62
2023-11-24 23:24:00,SystemResetWarning,0830.3,5.01,000.00,019.1,018.7,000.0,027.3,020.4,12.6,0000.0,0006.04,0003.87,0003.62
2023-11-24 23:25:00,SystemResetWarning,0830.3,5.01,000.00,019.1,018.7,000.0,027.3,020.3,12.6,0000.0,0006.27,0003.91,0003.62
2023-11-24 23:26:00,SystemResetWarning,0830.3,5.00,000.00,019.1,018.6,000.0,027.3,020.3,12.6,0000.0,0006.35,0003.93,0003.62
2023-11-24 23:27:00,SystemResetWarning,0830.3,4.99,000.00,019.1,018.5,000.0,027.3,020.2,12.7,0000.0,0006.46,0003.95,0003.63
2023-11-24 23:28:00,SystemResetWarning,0830.3,4.99,000.00,019.1,018.5,000.0,027.3,020.2,12.7,0000.0,0006.49,0003.96,0003.62
2023-11-24 23:29:00,SystemResetWarning,0830.3,5.00,000.00,019.1,018.4,000.0,027.3,020.2,12.7,0000.0,0006.45,0003.96,0003.63
2023-11-24 23:30:00,SystemResetWarning,0830.3,5.01,000.00,019.0,018.4,000.0,027.3,020.1,12.7,0000.0,0006.75,0003.96,0003.63
2023-11-24 23:31:00,SystemResetWarning,0830.2,5.00,000.00,019.0,018.3,000.0,027.3,020.1,12.7,0000.0,0006.98,0003.97,0003.64
2023-11-24 23:32:00,SystemResetWarning,0830.2,5.01,000.00,019.0,018.3,000.0,027.3,020.1,12.8,0000.0,0006.98,0003.97,0003.64
2023-11-24 23:33:00,SystemResetWarning,0830.3,5.00,000.00,019.0,018.3,000.0,027.3,020.1,12.8,0000.0,0006.40,0003.95,0003.64
2023-11-24 23:34:00,SystemResetWarning,0830.3,4.99,000.00,019.0,018.2,000.0,027.3,020.1,12.8,0000.0,0006.28,0003.96,0003.65
2023-11-24 23:35:00,SystemResetWarning,0830.3,5.01,000.00,019.0,018.2,000.0,027.3,020.1,12.8,0000.0,0006.14,0003.94,0003.66
2023-11-24 23:36:00,SystemResetWarning,0830.3,5.01,000.00,019.0,018.2,000.0,027.3,020.0,12.8,0000.0,0005.96,0003.92,0003.66
2023-11-24 23:37:00,SystemResetWarning,0830.2,5.00,000.00,019.0,018.2,000.0,027.3,020.0,12.8,0000.0,0006.05,0003.93,0003.67
2023-11-24 23:38:00,SystemResetWarning,0830.3,4.99,000.00,019.0,018.2,000.0,027.3,020.0,12.8,0000.0,0006.18,0003.95,0003.68
2023-11-24 23:39:00,SystemResetWarning,0830.2,4.99,000.00,018.9,018.2,000.0,027.3,020.0,12.9,0000.0,0006.28,0003.96,0003.69
2023-11-24 23:40:00,SystemResetWarning,0830.3,5.00,000.00,018.9,018.1,000.0,027.3,020.0,12.9,0000.0,0006.32,0003.97,0003.69
2023-11-24 23:41:00,SystemResetWarning,0830.3,5.01,000.00,018.9,018.1,000.0,027.3,020.0,12.9,0000.0,0006.03,0003.95,0003.69
2023-11-24 23:42:00,SystemResetWarning,0830.3,5.01,000.00,018.9,018.1,000.0,027.2,020.0,12.9,0000.0,0005.69,0003.96,0003.70
2023-11-24 23:43:00,SystemResetWarning,0830.3,4.99,000.00,018.9,018.1,000.0,027.2,020.0,12.9,0000.0,0005.61,0003.95,0003.70
2023-11-24 23:44:00,SystemResetWarning,0830.3,5.00,000.00,018.9,018.1,000.0,027.2,020.0,12.9,0000.0,0005.75,0003.99,0003.70
2023-11-24 23:45:00,SystemResetWarning,0830.3,5.00,000.00,018.9,018.1,000.0,027.2,020.0,12.9,0000.0,0005.78,0003.99,0003.71
2023-11-24 23:46:00,SystemResetWarning,0830.2,4.99,000.00,018.9,018.1,000.0,027.2,020.0,13.0,0000.0,0005.75,0003.99,0003.71
2023-11-24 23:47:00,SystemResetWarning,0830.2,5.01,000.00,018.9,018.1,000.0,027.2,020.0,13.0,0000.0,0006.13,0004.01,0003.72
2023-11-24 23:48:00,SystemResetWarning,0830.3,5.01,000.00,018.9,018.1,000.0,027.2,020.0,13.0,0000.0,0006.13,0004.02,0003.73
2023-11-24 23:49:00,SystemResetWarning,0830.3,5.01,000.00,018.9,018.1,000.0,027.2,020.0,13.0,0000.0,0005.97,0004.01,0003.73
2023-11-24 23:50:00,SystemResetWarning,0830.3,5.00,000.00,018.9,018.1,000.0,027.2,020.0,13.0,0000.0,0005.88,0004.01,0003.73
2023-11-24 23:51:00,SystemResetWarning,0830.3,4.99,000.00,018.9,018.0,000.0,027.2,020.0,13.0,0000.0,0005.91,0004.03,0003.74
2023-11-24 23:52:00,SystemResetWarning,0830.3,5.00,000.00,018.9,018.0,000.0,027.2,020.0,13.0,0000.0,0006.02,0004.06,0003.75
2023-11-24 23:53:00,SystemResetWarning,0830.3,5.01,000.00,018.9,018.0,000.0,027.2,020.0,13.0,0000.0,0005.96,0004.05,0003.75
2023-11-24 23:54:00,SystemResetWarning,0830.3,5.01,000.00,018.9,018.0,000.0,027.2,020.0,13.0,0000.0,0006.05,0004.07,0003.77
2023-11-24 23:55:00,SystemResetWarning,0830.3,4.99,000.00,018.9,018.0,000.0,027.2,020.0,13.0,0000.0,0006.31,0004.04,0003.76
2023-11-24 23:56:00,SystemResetWarning,0830.3,4.99,000.00,018.9,018.0,000.0,027.2,020.0,13.0,0000.0,0006.73,0004.04,0003.76
2023-11-24 23:57:00,SystemResetWarning,0830.3,5.00,000.00,018.9,018.0,000.0,027.2,020.0,13.0,0000.0,0006.76,0004.06,0003.77
2023-11-24 23:58:00,SystemResetWarning,0830.3,5.00,000.00,018.9,018.0,000.0,027.2,020.0,13.0,0000.0,0006.83,0004.06,0003.77
2023-11-24 23:59:00,SystemResetWarning,0830.3,4.99,000.00,018.9,018.0,000.0,027.2,020.0,13.0,0000.0,0006.89,0004.05,0003.76
